Probability
0 23 100 100 100 100 100 97 97 90 52 35 16 0 0 0 0 0 0 0 0 0 0 0 0 0 0 0 0 0 0 0 0 0 0 0 0 0 0 0 0 0 0
0 52 100 100 100 100 100 100 97 81 42 29 10 0 0 0 0 0 0 0 0 0 0 0 0 0 0 0 0 0 0 0 0 0 0 0 0 0 0 0 0 0 0
10 90 100 100 100 100 100 100 87 65 35 19 3 0 0 0 0 0 3 0 0 0 0 0 0 0 0 0 0 0 0 0 0 0 0 0 0 0 0 0 0 0 0
32 94 100 100 100 100 100 97 84 58 26 6 0 3 6 6 3 0 3 0 0 0 0 0 0 0 0 0 0 0 0 0 0 0 0 0 0 0 0 0 0 0 0
42 87 100 100 100 100 100 90 74 42 19 6 3 10 6 13 6 3 3 0 0 0 0 0 0 0 0 0 0 0 0 0 0 0 0 0 0 0 0 0 0 0 0
23 87 100 100 100 100 100 90 65 39 10 6 3 10 13 10 6 6 0 0 0 0 0 0 0 0 0 0 0 0 0 0 0 0 0 0 0 0 0 0 0 0 0
23 77 100 100 100 100 97 77 58 23 6 3 3 6 13 10 3 0 0 0 0 0 0 0 0 0 0 0 0 0 0 0 0 0 0 0 0 0 0 0 0 0 0
26 77 100 100 100 100 97 74 52 19 3 0 3 3 0 3 0 0 0 0 0 0 0 0 0 0 0 0 0 0 0 0 0 0 0 0 0 0 0 0 0 0 0
32 48 84 97 97 100 94 68 52 26 3 0 0 0 0 0 0 0 0 0 0 0 0 0 0 0 0 0 0 0 0 0 0 0 0 0 0 0 0 0 0 0 0
16 23 23 29 39 52 45 52 29 6 3 0 0 0 0 0 0 0 0 0 0 0 0 0 0 0 0 0 0 0 0 0 0 0 0 0 0 0 0 0 0 0 0
16 16 10 6 6 6 6 16 6 3 0 0 0 0 0 0 0 0 0 0 0 0 0 0 0 0 0 0 0 0 0 0 0 0 0 0 0 0 0 0 0 0 0
6 10 6 6 3 3 6 0 0 0 0 0 0 0 0 0 0 0 0 0 0 0 0 0 0 0 0 0 0 0 0 0 0 0 0 0 0 0 0 0 0 0 0
3 0 0 0 0 0 0 0 0 0 0 0 0 0 0 0 0 0 0 0 0 0 0 0 0 0 0 0 0 0 0 0 0 0 0 0 0 0 0 0 0 0 0
0 0 0 0 0 0 0 0 0 0 0 0 0 0 0 0 0 0 0 0 0 0 0 0 0 0 0 0 0 0 0 0 0 0 0 0 0 0 0 0 0 0 0
0 0 0 0 0 0 0 0 0 0 0 0 0 0 0 0 0 0 0 0 0 0 0 0 0 0 0 0 0 0 0 0 0 0 0 0 0 0 0 0 0 0 0
0 0 0 0 0 0 0 0 0 0 0 0 0 0 0 0 0 0 0 0 0 0 0 0 0 0 0 0 0 0 0 0 0 0 0 0 0 0 0 0 0 0 0
0 0 0 0 0 0 0 0 0 0 0 0 0 0 0 0 0 0 0 0 0 0 0 0 0 0 0 0 0 0 0 0 0 0 0 0 0 0 0 0 0 0 0
0 0 0 0 0 0 0 0 0 0 0 0 0 0 0 0 0 0 0 0 0 0 0 0 0 0 0 0 0 0 0 0 0 0 0 0 0 0 0 0 0 0 0
0 0 0 0 0 0 0 0 0 0 0 0 0 0 0 0 0 0 0 0 0 0 0 0 0 0 0 0 0 0 0 0 0 0 0 0 0 0 0 0 0 0 0
0 0 0 0 0 0 0 0 0 0 0 0 0 0 0 0 0 0 0 0 0 0 0 0 0 0 0 0 0 0 0 0 0 0 0 0 0 0 0 0 0 0 0
0 0 0 0 0 0 0 0 0 0 0 0 0 0 0 0 0 0 0 0 0 0 0 0 0 0 0 0 0 0 0 0 0 0 0 0 0 0 0 0 0 0 0
0 0 0 0 0 0 0 0 0 0 0 0 0 0 0 0 0 0 0 0 0 0 0 0 0 0 0 0 0 0 0 0 0 0 0 0 0 0 0 0 0 0 0
0 0 0 0 0 0 0 0 0 0 0 0 0 0 0 0 0 0 0 0 0 0 0 0 0 0 0 0 0 0 0 0 0 0 0 0 0 0 0 0 0 0 0
0 0 0 0 0 0 0 0 0 0 0 0 0 0 0 0 0 0 0 0 0 0 0 0 0 0 0 0 0 0 0 0 0 0 0 0 0 0 0 0 0 0 0
0 0 0 0 0 0 0 0 0 0 0 0 0 0 0 0 0 0 0 0 0 0 0 0 0 0 0 0 0 0 0 0 0 0 0 0 0 0 0 0 0 0 0
0 0 0 0 0 0 0 0 0 0 0 0 0 0 0 0 0 0 0 0 0 0 0 0 0 0 0 0 0 0 0 0 0 0 0 0 0 0 0 0 0 0 0
Height
5891 5892 5893 5894 5895 5895 5896 5897 5897 5897 5898 5898 5898 5898 5898 5898 5898 5898 5898 5897 5897 5896 5896 5895 5894 5894 5893 5892 5891 5891 5890 5889 5888 5887 5886 5885 5884 5883 5882 5881 5880 5879 5877
5889 5890 5892 5893 5894 5894 5895 5896 5896 5897 5897 5897 5897 5897 5897 5897 5897 5897 5897 5896 5896 5895 5894 5894 5893 5892 5891 5890 5890 5889 5888 5887 5886 5885 5884 5883 5882 5881 5879 5878 5877 5876 5875
5887 5889 5890 5891 5892 5893 5894 5895 5895 5896 5896 5896 5896 5896 5896 5896 5896 5896 5896 5895 5894 5894 5893 5892 5891 5890 5889 5889 5888 5887 5886 5885 5884 5883 5882 5881 5879 5878 5877 5876 5875 5873 5872
5885 5887 5888 5890 5891 5892 5893 5894 5894 5894 5895 5895 5895 5895 5895 5895 5895 5895 5894 5894 5893 5892 5891 5890 5889 5888 5888 5887 5886 5885 5884 5883 5882 5881 5879 5878 5877 5876 5874 5873 5872 5870 5869
5883 5885 5887 5888 5889 5891 5892 5892 5893 5893 5893 5894 5894 5894 5894 5894 5894 5893 5893 5892 5891 5891 5890 5889 5888 5887 5886 5885 5884 5883 5882 5881 5880 5878 5877 5876 5874 5873 5872 5870 5869 5868 5866
5880 5882 5884 5886 5888 5889 5890 5891 5892 5892 5892 5892 5893 5893 5893 5893 5892 5892 5891 5891 5890 5889 5888 5887 5886 5885 5884 5883 5882 5881 5880 5878 5877 5876 5874 5873 5872 5870 5869 5867 5866 5865 5863
5878 5880 5882 5884 5886 5887 5888 5889 5890 5891 5891 5891 5891 5891 5891 5891 5891 5890 5889 5889 5888 5887 5886 5885 5884 5883 5882 5881 5880 5878 5877 5876 5874 5873 5872 5870 5869 5867 5866 5864 5863 5862 5860
5875 5877 5879 5881 5883 5885 5886 5887 5888 5889 5889 5890 5890 5890 5890 5889 5889 5888 5887 5887 5886 5885 5884 5883 5882 5881 5880 5879 5878 5876 5875 5873 5872 5870 5869 5867 5866 5864 5863 5861 5860 5858 5857
5871 5874 5876 5878 5880 5882 5883 5885 5886 5887 5887 5888 5888 5888 5888 5887 5887 5886 5885 5884 5884 5883 5882 5881 5880 5879 5878 5877 5875 5874 5872 5871 5869 5868 5866 5864 5863 5861 5859 5858 5856 5855 5853
5868 5870 5873 5875 5877 5879 5881 5882 5883 5884 5885 5885 5885 5885 5885 5885 5884 5884 5883 5882 5881 5880 5879 5879 5878 5877 5875 5874 5872 5871 5869 5868 5866 5864 5862 5861 5859 5857 5855 5854 5852 5850 5849
5864 5867 5869 5872 5874 5876 5877 5879 5880 5881 5882 5882 5882 5882 5882 5882 5881 5881 5880 5879 5879 5878 5877 5876 5875 5874 5872 5871 5869 5867 5866 5864 5863 5861 5859 5857 5855 5853 5851 5849 5848 5846 5844
5860 5863 5866 5868 5870 5872 5874 5875 5877 5878 5878 5879 5879 5879 5879 5879 5878 5878 5877 5876 5875 5875 5874 5873 5871 5870 5869 5867 5866 5864 5862 5860 5858 5857 5855 5853 5851 5849 5847 5845 5843 5841 5840
5856 5859 5862 5864 5866 5869 5870 5872 5873 5874 5875 5875 5876 5876 5876 5875 5875 5874 5874 5873 5872 5871 5870 5869 5868 5866 5865 5863 5862 5860 5858 5856 5854 5852 5850 5848 5846 5844 5842 5840 5838 5836 5835
5852 5855 5858 5860 5862 5864 5866 5868 5869 5870 5871 5871 5872 5872 5872 5871 5871 5870 5870 5869 5868 5867 5866 5865 5863 5862 5860 5859 5857 5855 5853 5851 5849 5846 5844 5842 5840 5838 5836 5834 5832 5831 5829
5847 5850 5853 5856 5858 5860 5862 5863 5864 5865 5866 5867 5867 5868 5868 5867 5867 5866 5865 5864 5863 5863 5862 5860 5859 5857 5855 5853 5852 5850 5848 5845 5843 5840 5838 5836 5834 5831 5830 5828 5826 5824 5822
5841 5844 5848 5850 5853 5855 5857 5858 5860 5861 5862 5862 5863 5863 5863 5862 5862 5861 5861 5860 5858 5858 5857 5855 5854 5852 5850 5848 5846 5843 5841 5839 5837 5834 5832 5829 5826 5824 5822 5820 5818 5817 5815
5835 5839 5842 5845 5847 5850 5851 5853 5854 5855 5856 5857 5858 5858 5858 5857 5857 5856 5856 5854 5853 5852 5851 5849 5848 5846 5844 5842 5839 5837 5835 5832 5830 5827 5824 5822 5819 5816 5814 5812 5810 5808 5807
5829 5833 5836 5839 5841 5844 5845 5847 5848 5850 5851 5851 5852 5852 5852 5852 5852 5851 5850 5849 5848 5846 5845 5843 5841 5839 5837 5835 5832 5830 5828 5825 5822 5819 5817 5813 5811 5808 5805 5803 5801 5799 5798
5823 5826 5830 5833 5835 5838 5839 5841 5843 5844 5845 5845 5846 5846 5846 5846 5846 5845 5845 5843 5842 5840 5839 5837 5835 5833 5830 5828 5825 5823 5820 5817 5814 5812 5808 5805 5802 5799 5796 5794 5792 5790 5788
5816 5820 5823 5826 5829 5831 5833 5835 5836 5837 5838 5839 5840 5840 5840 5840 5839 5839 5838 5837 5835 5834 5832 5830 5828 5825 5823 5820 5818 5815 5813 5810 5806 5803 5800 5797 5794 5790 5787 5784 5782 5780 5778
5809 5813 5816 5820 5822 5825 5827 5828 5830 5831 5832 5833 5833 5833 5833 5833 5833 5832 5831 5830 5828 5827 5825 5823 5820 5818 5815 5812 5809 5807 5805 5801 5798 5795 5791 5788 5785 5781 5777 5774 5771 5769 5767
5801 5805 5809 5812 5815 5817 5819 5821 5823 5825 5826 5826 5827 5827 5827 5826 5826 5825 5824 5823 5821 5819 5817 5815 5812 5809 5807 5803 5800 5798 5797 5795 5790 5786 5782 5778 5775 5771 5767 5764 5760 5757 5755
5793 5797 5801 5804 5807 5809 5812 5814 5815 5817 5818 5819 5819 5819 5819 5819 5818 5817 5816 5814 5813 5811 5809 5806 5803 5800 5797 5794 5790 5787 5785 5784 5781 5778 5773 5769 5764 5761 5757 5752 5749 5745 5742
5786 5789 5793 5796 5799 5801 5804 5806 5808 5809 5810 5811 5811 5811 5811 5810 5809 5808 5807 5806 5804 5802 5800 5797 5793 5790 5787 5784 5781 5777 5774 5771 5769 5768 5765 5760 5755 5750 5746 5741 5736 5732 5728
5778 5781 5785 5788 5790 5793 5795 5797 5799 5801 5802 5803 5803 5803 5802 5801 5801 5800 5798 5797 5795 5793 5790 5787 5784 5780 5777 5774 5771 5767 5764 5760 5757 5755 5754 5750 5744 5739 5734 5728 5723 5718 5713
5769 5773 5776 5779 5782 5784 5786 5789 5790 5792 5793 5794 5794 5794 5794 5793 5792 5791 5789 5788 5786 5783 5780 5777 5774 5771 5767 5764 5761 5757 5754 5751 5747 5743 5741 5738 5733 5728 5721 5715 5709 5703 5698
Wind_Speed
14 14 13 12 11 10 9 9 7 6 5 4 4 5 5 6 7 8 9 9 10 10 11 11 12 12 12 12 12 12 12 13 14 15 15 16 16 17 17 17 18 18 17
15 15 14 13 12 11 10 9 8 6 5 4 5 6 7 7 8 9 9 10 10 11 11 12 12 12 13 13 13 13 14 15 15 16 16 17 17 18 18 18 19 19 19
16 15 14 13 12 11 10 9 7 6 5 5 5 6 7 8 9 10 10 11 11 11 12 12 13 13 14 14 14 15 15 16 16 17 17 18 18 19 19 19 19 19 19
16 14 13 13 12 11 10 8 7 6 5 6 6 7 8 9 11 12 12 12 12 12 13 13 13 14 14 15 15 15 16 16 17 18 19 19 19 19 19 19 20 20 19
17 16 14 12 11 10 9 8 7 6 6 7 8 9 10 11 12 13 14 14 14 14 14 14 14 14 15 15 16 16 17 17 18 19 19 19 19 19 20 20 20 19 19
19 17 15 13 11 10 9 8 7 7 8 9 10 11 12 13 14 15 15 15 15 15 15 15 15 15 16 16 17 18 19 19 20 20 20 20 20 20 20 20 20 20 20
20 18 16 14 12 11 10 9 8 8 9 10 11 12 14 15 16 16 16 16 16 16 15 15 16 16 17 18 19 19 20 21 21 22 22 22 22 22 22 21 21 21 20
20 18 16 15 13 12 11 10 10 10 10 11 12 13 15 16 17 17 17 17 17 17 16 16 16 17 18 19 20 20 21 22 23 23 23 24 24 23 23 23 23 22 22
22 20 18 16 15 13 12 12 12 12 12 13 13 14 15 16 17 18 18 18 18 17 17 17 17 18 19 20 21 22 22 23 24 24 25 25 25 25 25 25 24 24 23
23 21 19 18 16 15 14 14 14 14 14 14 15 15 16 17 17 18 18 19 19 19 19 19 19 19 20 21 22 23 24 25 25 26 26 26 26 27 27 27 26 26 26
25 23 21 19 18 17 16 16 16 16 16 16 17 17 17 18 18 18 18 19 19 20 20 20 20 21 22 23 24 25 26 26 27 27 28 28 28 28 28 28 28 28 28
27 25 23 21 20 19 18 18 18 18 18 18 18 19 19 19 19 19 19 20 20 20 21 21 22 22 23 24 25 26 28 29 29 30 30 30 30 30 30 30 30 30 29
28 27 25 24 23 22 21 20 20 20 20 20 20 20 21 21 21 20 20 21 21 22 22 23 23 24 25 26 27 28 29 30 31 32 32 32 32 32 32 32 32 32 31
30 28 27 26 25 25 24 23 22 22 22 21 21 22 22 22 22 22 22 22 23 23 24 24 25 26 27 28 29 30 31 32 33 34 34 35 35 35 35 35 35 34 34
32 30 30 29 28 27 26 26 25 24 24 23 23 23 23 24 24 24 24 24 25 25 25 26 27 28 29 30 31 32 33 34 35 36 37 37 37 38 37 37 37 37 37
34 33 32 32 31 30 29 28 27 27 26 25 25 25 25 25 26 26 26 26 27 27 28 28 29 30 31 32 34 35 36 36 37 38 39 39 40 40 40 40 40 39 39
37 36 35 34 33 32 31 30 29 29 28 28 27 27 27 27 27 27 28 28 29 30 30 30 32 33 34 35 37 38 39 39 40 40 41 42 42 42 43 43 43 42 41
39 38 37 36 35 34 33 33 32 31 30 30 29 29 29 29 29 29 29 30 31 31 32 33 34 36 37 38 40 41 41 42 42 43 43 44 44 44 45 45 45 44 44
41 40 39 38 37 36 36 35 34 33 33 32 32 31 31 31 31 31 31 32 33 34 34 36 37 39 40 41 43 43 44 44 45 45 45 45 46 46 46 46 46 46 46
43 42 41 40 39 38 38 37 36 36 35 34 34 33 33 33 33 33 33 34 35 36 37 39 40 41 43 44 45 45 46 46 46 46 46 47 47 47 48 48 48 47 47
45 44 43 42 41 41 40 39 39 38 37 36 35 35 34 35 35 35 36 36 37 38 40 41 43 44 45 47 47 47 47 47 46 47 47 47 47 48 48 48 48 48 48
47 46 45 44 43 43 42 41 41 39 38 37 37 36 36 37 37 38 38 39 40 41 42 43 45 47 47 48 49 49 48 46 46 47 47 46 47 47 48 49 50 50 51
46 46 46 45 44 44 43 42 41 41 40 39 38 38 38 39 39 39 40 40 42 43 44 46 48 49 49 49 49 49 49 48 47 46 45 46 47 48 50 51 51 52 53
45 46 46 46 45 45 44 44 43 42 41 40 40 40 41 41 41 41 41 42 43 45 47 49 50 50 50 49 49 49 49 49 48 47 45 46 48 50 51 53 54 55 56
44 45 45 46 46 46 46 45 44 43 43 42 41 42 42 42 42 42 42 43 45 47 49 50 50 50 49 49 49 49 49 49 48 48 46 47 49 51 52 54 55 56 57
43 44 45 46 46 46 46 46 45 45 44 44 43 43 43 43 43 44 44 46 48 49 50 49 49 48 48 48 48 48 48 47 47 48 48 47 49 51 52 54 55 55 56
Wind_Direction
235 241 248 254 261 269 275 277 280 282 290 303 321 337 346 350 350 349 347 343 339 336 333 331 329 327 325 323 323 323 320 317 316 315 313 313 312 311 310 309 307 305 304
240 247 254 259 264 269 271 272 274 279 290 308 327 338 343 345 344 342 339 334 330 328 327 326 325 324 322 321 320 318 316 315 314 313 312 311 310 309 309 308 306 304 303
243 250 255 258 261 263 263 265 270 278 294 314 327 334 337 337 335 333 331 328 325 322 321 321 322 321 321 321 320 317 315 314 314 314 312 311 310 309 308 308 306 304 303
242 248 251 252 253 254 257 262 270 282 299 312 319 325 327 328 327 326 325 323 321 318 317 318 318 319 320 321 320 318 316 314 313 313 312 311 310 310 309 308 307 305 303
239 241 242 243 244 246 252 259 271 287 300 308 312 315 318 320 322 322 321 321 320 317 315 314 315 316 316 317 316 314 313 312 312 311 311 310 309 308 308 307 306 304 302
237 236 236 236 238 241 247 255 270 285 295 302 305 309 312 316 318 318 318 319 318 316 314 313 313 313 314 314 313 313 312 312 312 312 311 310 309 308 306 305 303 302 300
233 232 232 232 235 240 247 256 269 281 289 295 299 304 309 312 314 315 315 316 316 315 314 313 313 313 313 313 313 313 312 312 312 311 310 309 308 307 305 303 301 300 298
229 229 231 233 236 242 250 260 271 279 284 287 291 297 303 307 310 312 313 313 314 314 313 314 314 314 314 313 313 312 311 311 310 309 308 307 306 305 303 301 299 298 297
228 228 230 234 239 245 254 264 273 281 284 286 287 291 297 302 306 308 310 311 312 312 312 312 313 313 313 313 312 311 310 309 308 307 307 306 305 304 302 300 298 296 294
227 228 230 234 240 248 257 266 275 281 284 286 287 290 294 298 301 303 305 307 308 308 309 310 311 312 312 312 311 310 309 308 307 306 305 304 303 302 301 299 297 295 293
227 229 232 236 242 250 259 267 275 281 284 286 288 290 293 296 298 300 301 303 304 305 306 308 309 310 310 310 309 309 308 307 306 305 304 302 301 300 299 298 296 294 292
227 230 234 238 244 250 258 265 273 279 283 286 288 289 292 295 297 298 300 301 301 303 304 306 307 308 308 308 308 308 307 307 305 304 303 302 301 299 298 296 295 293 291
227 230 235 240 246 251 258 264 271 276 280 283 285 287 290 293 295 297 298 299 300 302 304 305 306 307 308 308 308 307 307 306 305 304 303 302 301 299 297 295 294 293 291
227 230 236 241 247 252 258 263 269 273 276 280 282 284 288 291 293 295 296 297 299 301 303 304 306 307 308 308 307 307 307 306 305 304 303 302 301 299 297 296 295 293 291
228 231 235 241 246 252 257 262 266 270 273 276 278 282 286 289 291 293 294 296 297 300 302 303 304 305 306 306 306 306 305 304 304 303 302 301 301 299 298 296 295 294 292
229 232 236 241 246 251 256 260 264 267 270 273 276 279 283 286 288 290 292 294 296 298 300 301 302 303 303 304 304 303 303 302 302 301 301 300 300 299 298 297 296 294 292
230 233 237 241 246 250 255 259 262 265 268 271 274 277 280 283 285 288 290 292 294 297 298 299 300 301 301 301 301 301 301 301 300 300 300 299 299 298 298 297 296 294 292
232 234 238 241 246 250 254 258 261 264 267 270 273 276 278 280 283 285 288 290 292 295 296 297 298 298 299 299 299 299 299 299 299 300 300 299 298 298 297 296 295 294 293
233 236 239 242 246 250 254 257 260 263 266 269 271 274 276 279 281 283 285 288 290 292 293 294 295 296 297 297 297 298 298 298 298 299 299 298 297 297 296 296 295 294 292
235 237 240 243 246 249 253 256 258 261 264 267 270 272 275 278 280 282 284 286 288 289 290 292 293 294 295 295 296 297 297 298 298 298 297 297 297 297 296 295 294 293 292
236 237 240 242 245 248 251 253 256 259 262 264 267 269 273 276 279 281 283 284 286 287 289 290 291 293 294 294 295 296 296 297 298 297 297 298 297 297 296 295 294 293 291
237 238 240 243 245 247 250 252 255 257 260 263 265 268 272 275 277 279 281 283 285 287 288 290 291 293 293 294 295 295 296 296 297 298 298 298 298 297 297 295 294 293 291
238 239 241 243 246 248 251 253 255 257 260 263 266 269 272 275 277 279 281 283 285 287 289 291 292 293 293 294 295 296 296 297 296 298 299 299 298 298 298 297 295 293 291
239 241 243 245 247 249 251 254 256 258 261 264 267 270 273 275 277 279 281 284 286 288 290 291 292 293 294 294 295 296 297 298 298 298 298 298 299 299 298 297 296 294 291
240 242 244 245 248 250 252 254 256 259 261 264 267 270 273 275 276 279 281 284 287 289 290 291 292 292 293 294 295 297 298 298 299 299 300 299 299 300 299 298 297 295 292
242 243 244 246 248 250 252 254 257 259 262 264 267 269 271 273 276 279 282 285 288 289 290 290 291 292 293 294 296 297 297 298 299 300 300 300 301 301 300 300 298 296 294